Lid_Strength_Index
6 8 9 7 10 12 14 13 10 10 9 9 9 9 8 7 8 10 4 4 5 3 0 -1 -0 -1 -1 -1 -1 -1 -1 -1 -1 -1 -1 -1 -1 -1 -1 -1 -1 -1 -2 -2 -2 -2 -2 -2 -2
8 8 9 11 15 17 16 12 11 10 9 11 11 9 9 9 8 7 5 5 7 3 1 0 -0 -1 -1 -1 -1 -1 -1 -1 -1 -1 -1 -1 -1 -1 -1 -1 -1 -1 -2 -2 -2 -2 -2 -2 -1
9 10 12 13 17 18 18 14 12 12 12 11 11 8 9 9 8 7 5 5 6 6 2 2 0 -1 -1 -1 -1 -1 -1 -1 -1 -1 -1 -1 -1 -1 -1 -1 -1 -1 -2 -2 -2 -2 -2 -2 -2
11 11 14 17 18 16 16 13 13 14 12 11 11 12 8 8 9 8 7 6 7 7 6 4 2 0 -1 -1 -1 -1 -1 -1 -1 -1 -1 -1 -1 -1 -1 -1 -1 -1 -1 -2 -2 -2 -2 -2 -2
13 14 18 18 18 16 13 13 14 15 14 13 13 13 10 10 10 9 9 8 6 7 6 6 5 3 1 -0 -1 -1 -1 -1 -1 -1 -1 -1 -1 -1 -1 -1 -1 -1 -1 -2 -2 -2 -2 -1 -2
15 16 20 21 19 16 15 15 15 15 14 13 13 13 10 10 10 10 10 9 9 8 6 6 6 5 3 3 1 0 -1 -1 -1 -1 -1 -1 -1 -1 -1 -1 -1 -1 -1 -2 -2 -2 -1 -1 -1
17 18 20 20 20 18 16 14 15 15 14 13 12 13 9 11 10 9 9 9 9 9 7 7 6 6 5 4 4 2 1 0 -1 -1 -1 -1 -1 -1 -1 -1 -1 -1 -1 -2 -2 -1 -1 -1 -1
16 18 19 20 20 18 15 14 13 13 13 11 11 13 13 10 9 9 8 8 9 8 7 8 8 7 5 4 4 4 2 2 1 0 0 1 1 0 0 1 -0 -1 -1 -1 -1 -1 -1 -1 -1
14 19 20 19 19 18 15 15 12 12 13 12 11 11 11 10 9 9 9 8 8 8 8 8 8 9 7 6 6 5 4 3 2 1 2 2 -0 -0 -0 1 1 -1 -1 -1 -1 -1 -1 -0 -0
16 19 19 16 16 16 14 14 13 13 13 13 12 11 11 11 11 11 11 10 9 9 10 9 9 8 8 7 6 6 4 3 2 0 0 0 -0 -0 -0 1 2 1 0 -1 -1 -1 -0 1 -1
15 18 16 15 14 13 13 14 12 13 14 14 14 13 12 12 12 12 12 11 11 10 10 10 10 9 7 6 5 5 4 4 2 1 -0 -0 -0 -0 -0 -0 -0 -1 2 -1 -1 -1 -1 -1 -1
17 15 14 13 12 13 14 12 13 13 15 13 14 13 13 13 13 12 12 11 11 10 10 9 9 9 8 5 5 5 5 5 3 2 2 1 0 0 0 -0 -0 -0 -1 -1 -1 -1 -1 -0 -0
16 15 13 13 13 13 13 14 14 16 14 14 13 13 13 13 12 12 11 11 10 10 9 8 8 9 9 8 5 6 5 5 4 3 2 2 1 1 -0 -0 -0 -0 -0 -0 -0 -0 0 -0 0
14 14 14 13 13 13 15 15 14 15 14 14 14 14 13 12 12 12 11 12 11 10 9 7 7 9 8 8 6 6 5 4 4 3 3 2 1 1 0 0 0 0 0 -0 -0 0 0 0 -0
13 16 15 15 15 15 15 16 16 15 14 15 14 14 12 11 11 11 11 11 10 9 8 7 6 6 8 7 6 6 6 4 3 4 3 2 1 1 0 0 0 0 1 0 0 0 0 1 1
16 16 20 16 15 15 15 19 15 14 14 15 14 13 12 12 11 10 10 10 8 8 8 7 6 7 6 6 5 6 6 5 4 4 3 2 1 0 0 1 0 0 0 0 1 1 1 1 1
18 21 20 19 16 16 16 17 14 13 14 14 14 14 13 12 12 11 10 9 8 8 8 7 7 7 6 5 4 4 4 6 5 4 3 3 2 0 -0 0 0 -0 0 1 1 2 2 2 2
20 21 20 20 18 17 17 16 14 13 14 14 14 14 14 13 13 12 10 9 7 7 7 7 7 5 4 4 4 4 4 4 5 4 3 2 2 1 -0 0 0 0 1 1 1 2 2 2 3
18 19 20 19 17 18 17 16 14 13 14 15 15 15 15 14 13 12 11 9 8 8 8 8 7 6 5 5 5 5 5 4 3 2 1 1 0 1 0 1 0 0 1 1 1 2 2 3 3
17 19 20 19 17 18 18 17 15 13 15 15 15 15 15 14 13 12 11 11 10 9 9 9 8 7 7 6 5 4 3 3 3 2 0 0 -0 0 -0 0 1 0 1 1 1 2 3 3 2
18 19 20 20 18 18 18 20 18 14 13 14 14 15 15 15 15 13 13 12 11 10 10 10 9 8 8 7 5 4 3 2 2 1 1 1 2 3 -0 -0 0 1 1 1 1 1 2 3 3
23 17 19 20 24 24 20 25 18 16 16 16 16 17 16 16 14 14 13 13 12 11 10 10 9 9 8 8 7 6 5 5 3 2 2 3 5 6 5 0 0 1 1 2 1 1 2 3 4
21 18 20 20 24 25 21 24 20 18 18 18 18 18 17 16 15 15 14 13 12 11 12 11 11 10 10 9 8 7 6 4 2 3 4 5 7 8 9 6 3 5 6 9 3 3 2 3 4
17 20 20 22 23 31 25 22 21 21 22 20 19 19 18 17 16 15 14 13 13 12 12 12 12 11 11 10 10 9 9 8 7 7 7 8 10 11 12 11 10 10 12 12 13 13 14 13 13
20 25 30 28 30 30 22 23 21 23 20 21 22 21 19 17 16 16 16 15 14 14 14 13 13 13 12 12 12 11 10 10 10 10 10 10 12 13 13 14 13 14 14 15 15 16 16 16 16
21 26 29 31 31 29 22 25 21 22 22 23 22 23 18 18 17 17 16 16 15 15 14 14 15 15 14 13 13 13 12 12 12 12 11 12 13 14 14 13 15 13 15 16 16 17 17 17 17
21 25 21 30 29 29 25 22 23 20 21 21 23 19 20 19 18 18 17 16 16 16 15 15 15 15 15 15 14 14 14 14 14 14 13 13 14 14 15 16 17 16 17 18 17 18 19 18 19
19 19 26 27 33 33 27 25 23 24 24 23 24 21 20 19 19 18 17 17 16 16 16 15 15 15 15 15 15 15 15 15 15 15 16 15 16 16 17 17 19 18 18 19 19 20 20 21 21
22 24 22 24 26 31 31 27 25 25 26 26 24 21 21 20 20 19 18 17 17 16 16 16 16 16 16 16 16 16 16 16 16 16 17 17 17 17 18 19 20 19 20 20 20 20 20 21 21
21 27 26 28 29 26 27 27 27 26 26 25 23 21 19 19 20 19 19 19 19 18 17 17 17 17 16 16 16 16 16 16 17 18 18 17 18 19 19 20 20 21 20 20 21 21 22 21 22